QPF
0.03 0.03 0.04 0.04 0.04 0.04 0.03 0.03 0.04 0.03 0.01 0.01 0.01 0.01 0.03 0.03 0.02 0.02 0.01 0.01 0.01 0.01 0.01 0.02 0.05 0.09 0.10 0.12 0.17 0.25 0.27 0.19 0.11 0.06 0.04 0.05 0.03 0.01
0.04 0.06 0.07 0.08 0.08 0.07 0.06 0.05 0.04 0.04 0.02 0.01 0.01 0.01 0.03 0.04 0.04 0.03 0.02 0.02 0.01 0.01 0.01 0.02 0.04 0.10 0.17 0.21 0.24 0.26 0.26 0.24 0.17 0.11 0.08 0.06 0.03 0.02
0.04 0.09 0.11 0.13 0.14 0.13 0.11 0.08 0.05 0.04 0.03 0.01 0.01 0.01 0.02 0.04 0.05 0.06 0.05 0.04 0.02 0.01 0.01 0.02 0.05 0.10 0.18 0.26 0.30 0.32 0.32 0.27 0.20 0.14 0.10 0.05 0.02 0.01
0.03 0.06 0.08 0.10 0.10 0.11 0.11 0.08 0.05 0.04 0.03 0.02 0.02 0.01 0.01 0.04 0.06 0.07 0.09 0.07 0.04 0.03 0.03 0.04 0.06 0.10 0.18 0.25 0.30 0.33 0.35 0.34 0.26 0.16 0.08 0.03 0.01 0.00
0.03 0.05 0.06 0.06 0.05 0.05 0.05 0.05 0.04 0.03 0.03 0.03 0.03 0.02 0.02 0.05 0.08 0.11 0.13 0.11 0.07 0.05 0.04 0.05 0.08 0.12 0.16 0.21 0.24 0.27 0.29 0.29 0.24 0.17 0.09 0.03 0.01 0.00
0.02 0.05 0.07 0.09 0.09 0.07 0.05 0.03 0.03 0.03 0.03 0.03 0.04 0.04 0.04 0.07 0.12 0.13 0.12 0.12 0.09 0.07 0.06 0.05 0.06 0.08 0.10 0.12 0.12 0.15 0.19 0.22 0.21 0.15 0.08 0.03 0.01 0.00
0.02 0.03 0.06 0.11 0.14 0.15 0.13 0.09 0.05 0.04 0.04 0.05 0.06 0.07 0.07 0.10 0.15 0.16 0.14 0.13 0.11 0.08 0.06 0.04 0.03 0.03 0.05 0.08 0.11 0.12 0.13 0.13 0.11 0.08 0.05 0.02 0.01 0.00
0.02 0.03 0.04 0.09 0.11 0.12 0.15 0.14 0.14 0.12 0.11 0.12 0.13 0.12 0.12 0.13 0.20 0.23 0.19 0.15 0.13 0.09 0.05 0.05 0.03 0.03 0.04 0.04 0.07 0.08 0.08 0.07 0.06 0.04 0.03 0.02 0.01 0.00
0.04 0.04 0.04 0.06 0.08 0.08 0.11 0.13 0.17 0.22 0.26 0.28 0.28 0.24 0.18 0.17 0.22 0.28 0.24 0.15 0.13 0.11 0.06 0.06 0.06 0.06 0.05 0.06 0.07 0.06 0.05 0.05 0.05 0.04 0.03 0.03 0.02 0.02
0.06 0.05 0.03 0.04 0.06 0.06 0.07 0.11 0.16 0.24 0.34 0.40 0.43 0.40 0.31 0.24 0.24 0.34 0.37 0.24 0.18 0.15 0.08 0.07 0.08 0.07 0.07 0.07 0.06 0.05 0.04 0.03 0.03 0.04 0.04 0.03 0.02 0.02
0.07 0.06 0.03 0.01 0.03 0.02 0.03 0.06 0.09 0.16 0.24 0.33 0.38 0.39 0.38 0.38 0.37 0.40 0.45 0.34 0.30 0.29 0.17 0.08 0.07 0.06 0.07 0.08 0.08 0.05 0.03 0.02 0.02 0.02 0.02 0.01 0.01 0.01
0.05 0.04 0.04 0.02 0.02 0.01 0.01 0.02 0.04 0.08 0.13 0.18 0.24 0.29 0.34 0.39 0.44 0.49 0.53 0.43 0.38 0.38 0.28 0.14 0.10 0.07 0.08 0.08 0.06 0.04 0.02 0.01 0.01 0.01 0.00 0.00 0.00 0.00
0.05 0.04 0.03 0.02 0.01 0.01 0.00 0.00 0.01 0.02 0.04 0.09 0.14 0.20 0.28 0.36 0.45 0.54 0.57 0.51 0.41 0.38 0.31 0.20 0.15 0.10 0.08 0.08 0.06 0.03 0.01 0.01 0.01 0.00 0.00 0.00 0.00 0.00
0.04 0.03 0.01 0.00 0.00 0.00 0.00 0.00 0.00 0.00 0.01 0.02 0.05 0.10 0.18 0.28 0.37 0.48 0.56 0.54 0.46 0.38 0.29 0.19 0.15 0.11 0.08 0.07 0.07 0.05 0.02 0.01 0.01 0.01 0.00 0.00 0.00 0.00
0.03 0.01 0.00 0.00 0.00 0.00 0.00 0.00 0.00 0.00 0.00 0.00 0.02 0.04 0.08 0.15 0.20 0.27 0.36 0.42 0.37 0.29 0.24 0.21 0.16 0.12 0.09 0.07 0.05 0.04 0.03 0.02 0.02 0.01 0.01 0.00 0.00 0.00
0.00 0.00 0.00 0.00 0.00 0.00 0.00 0.00 0.00 0.00 0.00 0.00 0.00 0.01 0.02 0.05 0.09 0.13 0.17 0.22 0.22 0.19 0.16 0.15 0.15 0.12 0.10 0.09 0.06 0.05 0.03 0.02 0.01 0.01 0.01 0.01 0.00 0.00
0.00 0.00 0.00 0.00 0.00 0.00 0.00 0.00 0.00 0.00 0.00 0.00 0.00 0.00 0.01 0.01 0.03 0.05 0.07 0.10 0.10 0.10 0.09 0.09 0.08 0.07 0.07 0.06 0.06 0.05 0.03 0.01 0.01 0.00 0.00 0.00 0.00 0.00
0.00 0.00 0.00 0.00 0.00 0.00 0.00 0.00 0.00 0.00 0.00 0.00 0.00 0.00 0.00 0.00 0.01 0.01 0.02 0.03 0.04 0.04 0.04 0.04 0.04 0.04 0.03 0.03 0.02 0.01 0.01 0.00 0.00 0.00 0.00 0.00 0.00 0.00
0.00 0.00 0.00 0.00 0.00 0.00 0.00 0.00 0.00 0.00 0.00 0.00 0.00 0.00 0.00 0.00 0.00 0.00 0.00 0.00 0.01 0.01 0.01 0.01 0.01 0.01 0.01 0.01 0.01 0.00 0.00 0.00 0.00 0.00 0.00 0.00 0.00 0.00
0.00 0.00 0.00 0.00 0.00 0.00 0.00 0.00 0.00 0.00 0.00 0.00 0.00 0.00 0.00 0.00 0.00 0.00 0.00 0.00 0.00 0.00 0.00 0.00 0.00 0.00 0.00 0.00 0.00 0.00 0.00 0.00 0.00 0.00 0.00 0.00 0.00 0.00
0.00 0.00 0.00 0.00 0.00 0.00 0.00 0.00 0.00 0.00 0.00 0.00 0.00 0.00 0.00 0.00 0.00 0.00 0.00 0.00 0.00 0.00 0.00 0.00 0.00 0.00 0.00 0.00 0.00 0.00 0.00 0.00 0.00 0.00 0.00 0.00 0.00 0.00
0.00 0.00 0.00 0.00 0.00 0.00 0.00 0.00 0.00 0.00 0.00 0.00 0.00 0.00 0.00 0.00 0.00 0.00 0.00 0.00 0.00 0.00 0.00 0.00 0.00 0.00 0.00 0.00 0.00 0.00 0.00 0.00 0.00 0.00 0.00 0.00 0.00 0.00
0.00 0.00 0.00 0.00 0.00 0.00 0.00 0.00 0.00 0.00 0.00 0.00 0.00 0.00 0.00 0.00 0.00 0.00 0.00 0.00 0.00 0.00 0.00 0.00 0.00 0.00 0.00 0.00 0.00 0.00 0.00 0.00 0.00 0.00 0.00 0.00 0.00 0.00
MSLP
1017.99 1017.36 1016.74 1016.10 1015.37 1014.50 1013.49 1012.35 1011.12 1009.87 1008.68 1007.62 1006.77 1006.17 1005.83 1005.73 1005.83 1006.08 1006.42 1006.80 1007.19 1007.57 1007.94 1008.32 1008.73 1009.18 1009.70 1010.28 1010.93 1011.62 1012.35 1013.10 1013.86 1014.62 1015.38 1016.11 1016.83 1017.51
1017.59 1016.91 1016.25 1015.58 1014.83 1013.95 1012.94 1011.82 1010.61 1009.39 1008.24 1007.24 1006.44 1005.89 1005.60 1005.54 1005.66 1005.92 1006.25 1006.60 1006.94 1007.26 1007.57 1007.87 1008.20 1008.57 1009.02 1009.55 1010.17 1010.86 1011.61 1012.41 1013.24 1014.08 1014.93 1015.78 1016.59 1017.37
1017.17 1016.43 1015.73 1015.01 1014.22 1013.33 1012.32 1011.22 1010.06 1008.90 1007.82 1006.89 1006.17 1005.68 1005.44 1005.41 1005.54 1005.79 1006.10 1006.41 1006.71 1006.97 1007.21 1007.45 1007.71 1008.03 1008.43 1008.92 1009.51 1010.20 1010.97 1011.81 1012.71 1013.64 1014.58 1015.52 1016.44 1017.31
1016.77 1015.99 1015.25 1014.49 1013.68 1012.78 1011.79 1010.73 1009.62 1008.54 1007.54 1006.69 1006.03 1005.60 1005.39 1005.37 1005.49 1005.71 1005.97 1006.24 1006.49 1006.70 1006.90 1007.10 1007.33 1007.62 1008.00 1008.48 1009.07 1009.77 1010.56 1011.43 1012.38 1013.37 1014.39 1015.41 1016.41 1017.36
1016.44 1015.65 1014.89 1014.13 1013.32 1012.44 1011.49 1010.47 1009.44 1008.43 1007.51 1006.72 1006.12 1005.71 1005.49 1005.44 1005.52 1005.68 1005.88 1006.09 1006.29 1006.47 1006.65 1006.85 1007.10 1007.41 1007.81 1008.31 1008.92 1009.63 1010.45 1011.34 1012.32 1013.34 1014.41 1015.48 1016.54 1017.55
1016.22 1015.45 1014.71 1013.97 1013.20 1012.37 1011.47 1010.53 1009.57 1008.63 1007.77 1007.03 1006.44 1006.01 1005.75 1005.63 1005.62 1005.69 1005.81 1005.96 1006.12 1006.29 1006.50 1006.74 1007.05 1007.43 1007.90 1008.46 1009.11 1009.85 1010.68 1011.59 1012.57 1013.60 1014.67 1015.76 1016.84 1017.88
1016.13 1015.42 1014.74 1014.06 1013.35 1012.58 1011.76 1010.90 1010.01 1009.14 1008.32 1007.59 1006.98 1006.50 1006.15 1005.92 1005.80 1005.75 1005.78 1005.85 1005.99 1006.18 1006.44 1006.77 1007.18 1007.67 1008.25 1008.90 1009.63 1010.41 1011.26 1012.16 1013.12 1014.12 1015.16 1016.23 1017.29 1018.33
1016.20 1015.57 1014.97 1014.37 1013.74 1013.06 1012.32 1011.54 1010.72 1009.90 1009.10 1008.37 1007.71 1007.14 1006.68 1006.31 1006.04 1005.87 1005.78 1005.80 1005.91 1006.13 1006.47 1006.91 1007.46 1008.10 1008.82 1009.60 1010.41 1011.25 1012.12 1013.00 1013.92 1014.86 1015.84 1016.85 1017.86 1018.86
1016.45 1015.91 1015.40 1014.88 1014.34 1013.74 1013.08 1012.37 1011.61 1010.83 1010.05 1009.28 1008.56 1007.89 1007.30 1006.79 1006.37 1006.06 1005.86 1005.81 1005.90 1006.16 1006.58 1007.15 1007.85 1008.65 1009.53 1010.44 1011.36 1012.26 1013.15 1014.02 1014.88 1015.75 1016.64 1017.55 1018.49 1019.42
1016.89 1016.43 1016.00 1015.56 1015.09 1014.56 1013.97 1013.32 1012.62 1011.86 1011.08 1010.29 1009.51 1008.75 1008.03 1007.38 1006.81 1006.37 1006.07 1005.94 1006.01 1006.29 1006.78 1007.46 1008.30 1009.26 1010.28 1011.33 1012.35 1013.33 1014.24 1015.09 1015.90 1016.69 1017.48 1018.29 1019.13 1019.97
1017.53 1017.13 1016.75 1016.37 1015.95 1015.48 1014.94 1014.34 1013.67 1012.95 1012.18 1011.37 1010.54 1009.71 1008.90 1008.13 1007.44 1006.87 1006.46 1006.25 1006.29 1006.57 1007.09 1007.85 1008.79 1009.87 1011.02 1012.18 1013.30 1014.34 1015.28 1016.13 1016.89 1017.61 1018.31 1019.02 1019.74 1020.49
1018.34 1017.98 1017.64 1017.28 1016.89 1016.45 1015.95 1015.39 1014.77 1014.08 1013.34 1012.54 1011.69 1010.82 1009.95 1009.10 1008.31 1007.64 1007.13 1006.84 1006.81 1007.05 1007.57 1008.35 1009.34 1010.49 1011.72 1012.96 1014.15 1015.24 1016.21 1017.06 1017.81 1018.47 1019.09 1019.69 1020.32 1020.96
1019.29 1018.96 1018.62 1018.28 1017.90 1017.48 1017.01 1016.48 1015.90 1015.26 1014.56 1013.80 1012.99 1012.12 1011.23 1010.34 1009.49 1008.74 1008.15 1007.77 1007.65 1007.81 1008.28 1009.02 1009.99 1011.14 1012.39 1013.67 1014.90 1016.02 1017.02 1017.88 1018.61 1019.23 1019.79 1020.32 1020.85 1021.39
1020.34 1020.01 1019.68 1019.33 1018.95 1018.54 1018.09 1017.60 1017.08 1016.50 1015.88 1015.19 1014.44 1013.62 1012.75 1011.87 1011.00 1010.21 1009.54 1009.07 1008.85 1008.91 1009.27 1009.91 1010.81 1011.89 1013.10 1014.36 1015.58 1016.72 1017.73 1018.58 1019.31 1019.91 1020.43 1020.89 1021.34 1021.79
1021.41 1021.08 1020.75 1020.39 1020.02 1019.62 1019.20 1018.76 1018.29 1017.80 1017.26 1016.67 1016.02 1015.29 1014.50 1013.66 1012.82 1012.01 1011.30 1010.75 1010.42 1010.36 1010.58 1011.08 1011.84 1012.81 1013.92 1015.10 1016.27 1017.38 1018.37 1019.22 1019.93 1020.51 1021.00 1021.41 1021.80 1022.17
1022.44 1022.12 1021.78 1021.43 1021.06 1020.69 1020.30 1019.91 1019.52 1019.11 1018.68 1018.21 1017.67 1017.06 1016.37 1015.62 1014.84 1014.05 1013.33 1012.73 1012.31 1012.12 1012.19 1012.53 1013.13 1013.93 1014.90 1015.95 1017.03 1018.06 1019.00 1019.81 1020.50 1021.06 1021.52 1021.89 1022.21 1022.51
1023.36 1023.05 1022.73 1022.39 1022.04 1021.69 1021.35 1021.02 1020.70 1020.38 1020.05 1019.70 1019.29 1018.81 1018.25 1017.61 1016.92 1016.19 1015.49 1014.88 1014.40 1014.11 1014.05 1014.23 1014.64 1015.26 1016.05 1016.94 1017.88 1018.80 1019.65 1020.40 1021.04 1021.56 1021.97 1022.30 1022.57 1022.80
1024.10 1023.82 1023.53 1023.22 1022.91 1022.59 1022.29 1022.01 1021.76 1021.52 1021.29 1021.04 1020.75 1020.40 1019.97 1019.46 1018.87 1018.25 1017.61 1017.02 1016.53 1016.18 1016.01 1016.05 1016.31 1016.75 1017.35 1018.06 1018.83 1019.60 1020.33 1020.99 1021.55 1022.00 1022.36 1022.64 1022.85 1023.02
1024.66 1024.42 1024.17 1023.90 1023.62 1023.35 1023.09 1022.85 1022.64 1022.46 1022.30 1022.13 1021.94 1021.69 1021.39 1021.00 1020.55 1020.04 1019.50 1018.98 1018.51 1018.16 1017.94 1017.89 1018.01 1018.29 1018.72 1019.25 1019.84 1020.45 1021.04 1021.57 1022.02 1022.40 1022.68 1022.90 1023.05 1023.17
1025.03 1024.83 1024.63 1024.41 1024.17 1023.93 1023.71 1023.50 1023.32 1023.17 1023.04 1022.92 1022.79 1022.63 1022.42 1022.15 1021.82 1021.44 1021.03 1020.60 1020.22 1019.90 1019.68 1019.58 1019.62 1019.78 1020.06 1020.43 1020.85 1021.30 1021.73 1022.13 1022.46 1022.74 1022.94 1023.09 1023.19 1023.25
1025.21 1025.07 1024.91 1024.74 1024.55 1024.34 1024.14 1023.94 1023.77 1023.62 1023.50 1023.39 1023.29 1023.18 1023.05 1022.87 1022.66 1022.40 1022.11 1021.82 1021.53 1021.29 1021.12 1021.02 1021.02 1021.11 1021.29 1021.53 1021.81 1022.10 1022.39 1022.65 1022.87 1023.04 1023.16 1023.24 1023.29 1023.31
1025.23 1025.13 1025.03 1024.90 1024.74 1024.57 1024.38 1024.19 1024.01 1023.84 1023.70 1023.59 1023.49 1023.40 1023.31 1023.20 1023.08 1022.93 1022.77 1022.60 1022.44 1022.30 1022.20 1022.15 1022.15 1022.21 1022.32 1022.47 1022.64 1022.82 1022.98 1023.13 1023.24 1023.32 1023.37 1023.39 1023.39 1023.37
1025.09 1025.03 1024.97 1024.88 1024.76 1024.61 1024.43 1024.24 1024.05 1023.87 1023.71 1023.57 1023.46 1023.37 1023.29 1023.23 1023.17 1023.12 1023.06 1023.01 1022.97 1022.93 1022.93 1022.94 1022.98 1023.05 1023.13 1023.23 1023.33 1023.42 1023.50 1023.56 1023.60 1023.61 1023.60 1023.57 1023.53 1023.49
Thickness
5279 5287 5296 5306 5317 5334 5355 5377 5399 5423 5452 5482 5503 5526 5540 5554 5564 5572 5581 5589 5596 5602 5609 5615 5621 5626 5630 5634 5636 5636 5636 5635 5635 5634 5634 5634 5634 5634
5267 5277 5286 5296 5308 5324 5342 5364 5386 5408 5434 5464 5484 5505 5522 5538 5551 5560 5568 5576 5583 5591 5598 5605 5611 5617 5622 5626 5629 5631 5631 5630 5628 5627 5626 5625 5625 5624
5256 5266 5277 5287 5300 5314 5333 5353 5375 5396 5421 5447 5466 5486 5504 5521 5535 5545 5555 5563 5572 5579 5587 5594 5601 5608 5613 5617 5621 5623 5624 5623 5621 5620 5617 5616 5615 5613
5246 5256 5268 5280 5293 5307 5324 5343 5364 5385 5409 5431 5451 5469 5488 5506 5519 5530 5541 5551 5560 5568 5576 5584 5592 5599 5604 5609 5612 5614 5615 5614 5613 5610 5607 5606 5604 5601
5236 5247 5260 5273 5287 5301 5317 5334 5353 5375 5397 5418 5438 5455 5473 5490 5504 5517 5527 5537 5547 5556 5565 5574 5582 5589 5595 5599 5601 5603 5604 5604 5602 5598 5595 5593 5591 5589
5227 5239 5251 5265 5279 5294 5310 5326 5345 5364 5385 5406 5426 5442 5458 5474 5488 5502 5513 5524 5533 5543 5552 5561 5570 5577 5584 5589 5592 5591 5591 5588 5586 5583 5580 5578 5577 5576
5218 5230 5243 5257 5270 5284 5300 5315 5334 5353 5372 5392 5412 5428 5443 5458 5475 5490 5500 5509 5517 5527 5537 5546 5556 5564 5567 5571 5573 5575 5575 5572 5569 5566 5564 5562 5561 5561
5208 5220 5234 5247 5260 5273 5288 5302 5318 5336 5353 5371 5392 5410 5426 5441 5458 5474 5486 5496 5504 5515 5524 5529 5538 5543 5548 5552 5555 5557 5557 5555 5552 5550 5547 5546 5545 5544
5197 5209 5222 5236 5249 5261 5274 5288 5302 5319 5335 5349 5366 5384 5402 5420 5439 5461 5476 5487 5493 5502 5511 5513 5518 5523 5527 5530 5534 5536 5537 5536 5535 5532 5530 5529 5528 5527
5186 5198 5211 5224 5239 5250 5263 5276 5288 5302 5318 5333 5349 5365 5383 5403 5422 5442 5462 5471 5477 5484 5496 5497 5497 5503 5506 5509 5512 5515 5516 5516 5516 5515 5513 5511 5510 5509
5175 5187 5201 5214 5229 5240 5252 5265 5277 5289 5302 5316 5332 5348 5366 5388 5407 5426 5444 5460 5465 5464 5473 5479 5478 5481 5482 5485 5489 5493 5495 5496 5496 5496 5496 5494 5492 5492
5162 5175 5189 5202 5216 5228 5240 5253 5265 5275 5288 5303 5317 5332 5348 5365 5382 5399 5418 5443 5453 5449 5452 5461 5460 5465 5458 5455 5464 5470 5473 5474 5475 5476 5476 5475 5476 5476
5150 5161 5174 5188 5201 5215 5227 5239 5251 5262 5274 5287 5300 5314 5329 5344 5359 5376 5394 5415 5432 5435 5438 5447 5446 5446 5447 5438 5438 5444 5450 5451 5451 5452 5454 5456 5459 5460
5139 5149 5161 5174 5186 5200 5212 5224 5237 5249 5261 5273 5285 5297 5309 5324 5339 5354 5371 5389 5404 5416 5423 5432 5434 5434 5435 5427 5421 5420 5425 5427 5429 5431 5434 5437 5439 5442
5128 5139 5150 5161 5172 5184 5196 5209 5221 5233 5246 5258 5269 5279 5291 5305 5321 5338 5354 5369 5384 5395 5403 5411 5417 5418 5420 5417 5409 5406 5405 5405 5408 5412 5415 5419 5422 5424
5118 5126 5136 5146 5157 5169 5181 5192 5204 5217 5228 5239 5251 5263 5277 5291 5305 5319 5333 5347 5360 5367 5375 5383 5391 5397 5396 5397 5397 5392 5392 5391 5392 5397 5400 5402 5405 5409
5110 5117 5125 5134 5145 5155 5166 5177 5188 5200 5212 5223 5236 5248 5261 5274 5286 5298 5310 5322 5333 5341 5348 5356 5364 5371 5374 5377 5376 5377 5378 5379 5381 5384 5386 5388 5391 5395
5103 5107 5113 5120 5130 5140 5150 5162 5173 5184 5195 5207 5218 5230 5242 5254 5265 5277 5288 5298 5308 5315 5323 5333 5344 5352 5355 5351 5353 5358 5361 5364 5366 5370 5375 5378 5380 5382
5096 5098 5102 5109 5116 5126 5136 5147 5158 5169 5180 5192 5203 5214 5226 5238 5249 5258 5268 5278 5286 5293 5301 5312 5325 5337 5341 5335 5328 5338 5345 5349 5354 5358 5361 5365 5366 5368
5092 5093 5096 5101 5107 5115 5125 5135 5146 5157 5168 5178 5188 5199 5210 5221 5232 5242 5251 5260 5269 5276 5283 5292 5301 5309 5317 5320 5321 5321 5329 5336 5341 5344 5346 5349 5353 5357
5090 5091 5093 5096 5101 5107 5115 5125 5135 5146 5156 5166 5175 5185 5196 5206 5215 5225 5235 5245 5252 5259 5266 5272 5281 5292 5300 5307 5308 5309 5315 5321 5326 5329 5332 5335 5339 5342
5091 5090 5092 5094 5097 5101 5108 5116 5125 5135 5145 5154 5163 5173 5182 5192 5201 5210 5219 5227 5235 5243 5251 5259 5268 5277 5285 5289 5291 5295 5301 5307 5313 5318 5322 5324 5326 5328
5099 5095 5093 5094 5096 5098 5102 5108 5116 5125 5135 5143 5152 5161 5170 5179 5187 5196 5205 5213 5221 5229 5238 5246 5254 5262 5268 5273 5277 5282 5288 5295 5302 5307 5311 5315 5318 5321